[[{"header":{"parameterUnit":"m.s-1","parameterCategory":1,"la1":30.2992,"la2":30.254,"lo1":-89.0895,"lo2":-89.0443,"dy":0.0025,"dx":0.0025,"nx":19,"ny":19,"refTime":"2026-04-17T03:00:00:Z","depth":0,"parameterNumber":2,"parameterNumberName":"U-component_of_WINDS"},"data":[0,0,0,-0.404,-0.4038,-0.3905,-0.3904,-0.3758,-0.3757,0,0,0,0,0,0,0,0,0,0,0,-0.4095,-0.4094,-0.4041,-0.4038,-0.3905,-0.3904,-0.3758,-0.3757,0,0,0,0,0,0,0,0,0,0,0,-0.4095,-0.4094,-0.4094,-0.4037,-0.3905,-0.3904,-0.3758,-0.385,0,0,0,0,0,0,0,0,0,0,-0.3975,-0.404,-0.4095,-0.4094,-0.4037,-0.3905,-0.3904,-0.3854,-0.3845,-0.3829,0,-0.3819,0,-0.3786,-0.3749,-0.3748,0,0,0,-0.4026,-0.4048,-0.3999,-0.4094,-0.4036,-0.3905,-0.3962,-0.3848,-0.3838,-0.3816,-0.3817,-0.3811,-0.3784,-0.3748,-0.3747,-0.3697,-0.3697,0,0,-0.4034,-0.4079,-0.4007,-0.3993,-0.4015,-0.3966,-0.3958,-0.3841,-0.3845,-0.3816,-0.3807,-0.3781,-0.3747,-0.3746,-0.3697,-0.3697,0,0,0,-0.4063,-0.4084,-0.4037,-0.3999,-0.3974,-0.3962,-0.3953,-0.385,-0.3831,-0.3805,-0.3779,-0.3746,-0.3745,-0.3696,-0.3697,-0.3756,0,0,0,-0.4066,-0.4101,-0.4041,-0.4067,-0.3976,-0.391,-0.3964,-0.3839,-0.3824,-0.378,-0.3746,-0.3744,-0.3696,-0.3697,-0.3754,-0.3777,0,0,0,-0.4098,-0.4104,-0.409,-0.407,-0.4014,-0.3911,-0.3885,-0.3835,-0.381,-0.3748,-0.3743,-0.3696,-0.3696,-0.3752,-0.3773,-0.3778,0,0,0,-0.4145,-0.4143,-0.4092,-0.408,-0.4016,-0.3949,-0.3885,-0.3833,-0.3787,-0.3746,-0.3696,-0.3697,-0.3751,-0.3771,-0.3776,-0.3792,-0.3802,0,0,-0.4168,-0.4148,-0.4137,-0.4087,-0.4042,-0.3966,-0.3928,-0.3843,-0.3795,-0.3733,-0.3731,-0.3755,-0.3773,-0.3778,-0.3842,-0.3851,0,0,0,-0.416,-0.4153,-0.4131,-0.4091,-0.4027,-0.3975,-0.3891,-0.386,-0.3805,-0.3772,-0.3756,-0.3765,-0.3766,-0.3772,-0.3779,-0.3778,-0.3701,-0.3701,-0.3701,-0.4257,-0.4198,-0.4177,-0.4103,-0.4064,-0.3979,-0.3943,-0.3886,-0.3836,-0.3834,-0.3815,-0.3861,-0.3869,-0.3874,-0.3874,-0.3817,-0.3817,-0.3817,-0.3818,-0.4286,-0.4268,-0.4204,-0.4161,-0.4099,-0.4062,-0.3981,-0.3947,-0.3904,-0.387,-0.3867,-0.3836,-0.3885,-0.3882,-0.3821,-0.3821,-0.382,-0.382,-0.382,-0.4344,-0.4325,-0.4288,-0.4225,-0.4183,-0.4107,-0.407,-0.4013,-0.396,-0.3958,-0.3934,-0.3932,-0.3926,-0.395,-0.395,-0.3951,-0.3951,-0.3951,-0.3951,-0.442,-0.4376,-0.4351,-0.4285,-0.4253,-0.4203,-0.4119,-0.4086,-0.4034,-0.3997,-0.3996,-0.3948,-0.3901,-0.3891,-0.3953,-0.3953,-0.3953,-0.3952,-0.3952,-0.4474,-0.4453,-0.4416,-0.4384,-0.4302,-0.4266,-0.4194,-0.4132,-0.4096,-0.408,-0.4032,-0.4006,-0.3981,-0.3975,-0.3966,-0.4044,-0.4044,-0.4044,-0.4044,-0.4524,-0.4506,-0.4457,-0.4409,-0.4356,-0.4289,-0.425,-0.4186,-0.4115,-0.409,-0.407,-0.4054,-0.405,-0.4027,-0.402,-0.4011,-0.4098,-0.4098,-0.4098,-0.4555,-0.453,-0.4508,-0.4439,-0.4371,-0.4315,-0.4277,-0.4226,-0.4142,-0.41,-0.4069,-0.4067,-0.404,-0.4034,-0.3992,-0.3981,-0.3964,0,0]},{"header":{"parameterUnit":"m.s-1","parameterCategory":1,"la1":30.2992,"la2":30.254,"lo1":-89.0895,"lo2":-89.0443,"dy":0.0025,"dx":0.0025,"nx":19,"ny":19,"refTime":"2026-04-17T03:00:00:Z","depth":0,"parameterNumber":3,"parameterNumberName":"V-component_of_WINDS"},"data":[0,0,0,4.5092,4.5091,4.5044,4.5044,4.4985,4.4984,0,0,0,0,0,0,0,0,0,0,0,4.5108,4.5107,4.5092,4.5091,4.5044,4.5044,4.4985,4.4984,0,0,0,0,0,0,0,0,0,0,0,4.5108,4.5107,4.5107,4.509,4.5044,4.5044,4.4985,4.5019,0,0,0,0,0,0,0,0,0,0,4.5064,4.5082,4.5108,4.5107,4.509,4.5044,4.5044,4.5021,4.5017,4.5007,0,4.5,0,4.4992,4.498,4.498,0,0,0,4.5088,4.5085,4.5071,4.5107,4.509,4.5044,4.5064,4.5019,4.5015,4.5002,4.4999,4.4997,4.4991,4.498,4.498,4.4935,4.4935,0,0,4.5091,4.51,4.5074,4.5068,4.5078,4.5066,4.5063,4.5016,4.5013,4.4999,4.4996,4.499,4.498,4.4979,4.4936,4.4935,0,0,0,4.51,4.5102,4.5088,4.5071,4.5063,4.5064,4.5061,4.5015,4.501,4.4995,4.4989,4.4979,4.4979,4.4936,4.4936,4.4942,0,0,0,4.5101,4.5107,4.509,4.5095,4.5064,4.5038,4.5061,4.5013,4.5008,4.4989,4.4979,4.4978,4.4936,4.4936,4.4942,4.4942,0,0,0,4.511,4.5108,4.5102,4.5095,4.5076,4.5039,4.5031,4.5012,4.5004,4.498,4.4978,4.4936,4.4936,4.4942,4.4942,4.4934,0,0,0,4.5121,4.5106,4.5103,4.5084,4.5077,4.5044,4.5032,4.5006,4.4986,4.4979,4.4936,4.4936,4.4942,4.4942,4.4935,4.493,4.4929,0,0,4.5107,4.5105,4.5093,4.5088,4.506,4.505,4.5021,4.4993,4.498,4.4951,4.495,4.4942,4.4942,4.4934,4.4919,4.4919,0,0,0,4.5091,4.5083,4.5073,4.5057,4.5037,4.502,4.4996,4.4986,4.4961,4.4968,4.4936,4.4936,4.4931,4.4928,4.4928,4.4923,4.4935,4.4935,4.4935,4.5083,4.5072,4.5052,4.5035,4.5019,4.4996,4.4982,4.4964,4.4954,4.4947,4.4938,4.493,4.4928,4.4927,4.4922,4.4934,4.4934,4.4934,4.4934,4.5062,4.5048,4.504,4.5018,4.5005,4.4985,4.4963,4.4957,4.4937,4.4936,4.493,4.493,4.4927,4.4922,4.4935,4.4934,4.4934,4.4934,4.4934,4.5055,4.5047,4.5037,4.5014,4.4997,4.498,4.4962,4.495,4.4939,4.4934,4.4924,4.4924,4.4922,4.493,4.493,4.493,4.493,4.493,4.493,4.5052,4.5041,4.5028,4.5009,4.4998,4.4982,4.4961,4.4949,4.4933,4.4926,4.4926,4.4917,4.4929,4.4932,4.493,4.493,4.493,4.493,4.493,4.5033,4.5037,4.5017,4.5007,4.4984,4.4969,4.4956,4.4934,4.4922,4.4914,4.4907,4.4918,4.4914,4.4914,4.4917,4.491,4.491,4.491,4.491,4.5028,4.5026,4.5005,4.4989,4.4973,4.496,4.4938,4.4922,4.4905,4.4897,4.4897,4.4899,4.49,4.4895,4.4896,4.4898,4.4887,4.4887,4.4887,4.5016,4.5013,4.4996,4.4983,4.4966,4.495,4.4929,4.4911,4.4892,4.4886,4.4891,4.4892,4.4896,4.4898,4.489,4.4892,4.4896,0,0]}]]